This is the latest recevied weather packets stored in our database for station/object KF4PPJ. If no packets are shown the sender has not sent any weather packets the latest 10 day(s).
| Time | Temp. | Humidity | Pressure | Rain* | Wind** | Luminosity | Snow |
|---|---|---|---|---|---|---|---|
| 1777940704 | 25° C | 50% | 1012.3 hPa | 0 mm | - | 383 W/m² | - |
| 1777940403 | 25° C | 49% | 1012.3 hPa | 0 mm | - | 394 W/m² | - |
| 1777940100 | 25° C | 50% | 1012.3 hPa | 0 mm | - | 414 W/m² | - |
| 1777939796 | 25° C | 51% | 1012.4 hPa | 0 mm | - | 424 W/m² | - |
| 1777939495 | 24.44° C | 52% | 1012.4 hPa | 0 mm | - | 442 W/m² | - |
| 1777939191 | 24.44° C | 51% | 1012.4 hPa | 0 mm | - | 466 W/m² | - |
| 1777938888 | 24.44° C | 51% | 1012.5 hPa | 0 mm | - | 451 W/m² | - |
| 1777938585 | 24.44° C | 51% | 1012.4 hPa | 0 mm | - | 468 W/m² | - |
| 1777938282 | 24.44° C | 51% | 1012.5 hPa | 0 mm | - | 490 W/m² | - |
| 1777937978 | 24.44° C | 52% | 1012.3 hPa | 0 mm | - | 475 W/m² | - |
| 1777937674 | 24.44° C | 52% | 1012.4 hPa | 0 mm | - | 506 W/m² | - |
| 1777937372 | 23.89° C | 51% | 1012.5 hPa | 0 mm | - | 441 W/m² | - |
| 1777937069 | 23.89° C | 51% | 1012.5 hPa | 0 mm | - | 442 W/m² | - |
| 1777936766 | 23.89° C | 51% | 1012.4 hPa | 0 mm | - | 506 W/m² | - |
| 1777936461 | 24.44° C | 51% | 1012.4 hPa | 0 mm | - | 547 W/m² | - |
| 1777936157 | 24.44° C | 51% | 1012.7 hPa | 0 mm | - | 503 W/m² | - |
| 1777935855 | 24.44° C | 50% | 1012.6 hPa | 0 mm | - | 540 W/m² | - |
| 1777935554 | 23.89° C | 51% | 1012.7 hPa | 0 mm | - | 552 W/m² | - |
| 1777935250 | 25° C | 49% | 1012.8 hPa | 0 mm | - | 550 W/m² | - |
| 1777934948 | 24.44° C | 50% | 1013 hPa | 0 mm | - | 555 W/m² | - |
| 1777934644 | 24.44° C | 51% | 1012.7 hPa | 0 mm | - | 528 W/m² | - |
| 1777934341 | 24.44° C | 50% | 1013 hPa | 0 mm | - | 584 W/m² | - |
| 1777934037 | 24.44° C | 50% | 1013 hPa | 0 mm | - | 601 W/m² | - |
| 1777933733 | 25° C | 47% | 1013 hPa | 0 mm | - | 567 W/m² | - |
| 1777933430 | 25° C | 48% | 1013 hPa | 0 mm | - | 509 W/m² | - |
* Rain latest hour (hover to see other rain measurements)
** Current wind speed in m/s (hover to see current wind gust speed)